• In Kazakhstan
  • List of Countries
  • For 7 days
  • Water Temperature
  • Satellite Maps
  • Weather Map
  • News
  • Weather Widgets
  • user-avatar
    Login

    Hourly Weather Lexington-Fayette

    Today, 22 September, Friday

    Time Temperature Precipitation Wind Pressure Humidity
    00:00 +22°C° 0 mm 1 mps 736 mmHg 83%
    01:00 +22°C° 0 mm 1 mps 736 mmHg 84%
    02:00 +21°C° 0 mm 1 mps 736 mmHg 86%
    03:00 +21°C° 0 mm 1 mps 736 mmHg 87%
    04:00 +21°C° 0 mm 1 mps 736 mmHg 87%
    05:00 +21°C° 0 mm 1 mps 736 mmHg 88%
    06:00 +21°C° 0 mm 1 mps 737 mmHg 88%
    07:00 +23°C° 0 mm 1 mps 737 mmHg 82%
    08:00 +25°C° 0 mm 1 mps 737 mmHg 75%
    09:00 +28°C° 0 mm 1 mps 737 mmHg 68%
    10:00 +29°C° 0 mm 2 mps 737 mmHg 64%
    11:00 +30°C° 0 mm 2 mps 737 mmHg 59%
    12:00 +31°C° 0 mm 2 mps 737 mmHg 55%
    13:00 +31°C° 0 mm 2 mps 736 mmHg 55%
    14:00 +31°C° 0 mm 2 mps 736 mmHg 55%
    15:00 +31°C° 0 mm 2 mps 735 mmHg 55%
    16:00 +29°C° 0 mm 1 mps 735 mmHg 61%
    17:00 +27°C° 0 mm 1 mps 735 mmHg 66%
    18:00 +25°C° 0 mm 1 mps 735 mmHg 72%
    19:00 +25°C° 0 mm 1 mps 736 mmHg 73%
    20:00 +24°C° 0 mm 1 mps 736 mmHg 74%
    21:00 +23°C° 0 mm 1 mps 736 mmHg 75%
    22:00 +22°C° 0 mm 1 mps 736 mmHg 75%
    23:00 +22°C° 0 mm 1 mps 736 mmHg 75%

    Tomorrow, 23 September, Saturday

    Time Temperature Precipitation Wind Pressure Humidity
    00:00 +21°C° 0 mm 1 mps 736 mmHg 75%
    01:00 +21°C° 0 mm 1 mps 736 mmHg 76%
    02:00 +20°C° 0 mm 1 mps 736 mmHg 76%
    03:00 +20°C° 0 mm 1 mps 736 mmHg 77%
    04:00 +20°C° 0 mm 1 mps 736 mmHg 78%
    05:00 +20°C° 0 mm 1 mps 736 mmHg 79%
    06:00 +20°C° 0 mm 1 mps 736 mmHg 80%
    07:00 +22°C° 0 mm 1 mps 737 mmHg 74%
    08:00 +25°C° 0 mm 1 mps 737 mmHg 68%
    09:00 +27°C° 0 mm 1 mps 738 mmHg 62%
    10:00 +28°C° 0 mm 1 mps 737 mmHg 59%
    11:00 +30°C° 0 mm 1 mps 737 mmHg 55%
    12:00 +31°C° 0 mm 1 mps 737 mmHg 52%
    13:00 +31°C° 0 mm 1 mps 737 mmHg 52%
    14:00 +31°C° 0 mm 2 mps 736 mmHg 53%
    15:00 +31°C° 0 mm 2 mps 736 mmHg 53%
    16:00 +29°C° 0 mm 2 mps 736 mmHg 59%
    17:00 +27°C° 0 mm 2 mps 736 mmHg 64%
    18:00 +25°C° 0 mm 1 mps 736 mmHg 70%
    19:00 +24°C° 0 mm 1 mps 736 mmHg 71%
    20:00 +23°C° 0 mm 1 mps 736 mmHg 72%
    21:00 +23°C° 0 mm 1 mps 736 mmHg 74%
    22:00 +22°C° 0 mm 1 mps 736 mmHg 75%
    23:00 +21°C° 0 mm 1 mps 736 mmHg 76%

    Day after tomorrow, 24 September, Sunday

    Time Temperature Precipitation Wind Pressure Humidity
    00:00 +21°C° 0 mm 1 mps 736 mmHg 77%
    01:00 +21°C° 0 mm 1 mps 736 mmHg 78%
    02:00 +20°C° 0 mm 1 mps 736 mmHg 79%
    03:00 +20°C° 0 mm 1 mps 735 mmHg 79%
    04:00 +20°C° 0 mm 1 mps 736 mmHg 80%
    05:00 +20°C° 0 mm 1 mps 736 mmHg 80%
    06:00 +20°C° 0 mm 1 mps 736 mmHg 80%
    07:00 +22°C° 0 mm 1 mps 736 mmHg 74%
    08:00 +24°C° 0 mm 1 mps 737 mmHg 68%
    09:00 +27°C° 0 mm 1 mps 737 mmHg 63%
    10:00 +28°C° 0 mm 1 mps 737 mmHg 59%
    11:00 +29°C° 0 mm 1 mps 737 mmHg 55%
    12:00 +31°C° 0 mm 1 mps 736 mmHg 51%
    13:00 +31°C° 0 mm 1 mps 736 mmHg 51%
    14:00 +31°C° 0 mm 1 mps 735 mmHg 52%
    15:00 +31°C° 0 mm 1 mps 735 mmHg 52%
    16:00 +29°C° 0 mm 1 mps 735 mmHg 57%
    17:00 +27°C° 0 mm 1 mps 735 mmHg 63%
    18:00 +25°C° 0 mm 1 mps 735 mmHg 69%
    19:00 +24°C° 0 mm 1 mps 735 mmHg 70%
    20:00 +23°C° 0 mm 1 mps 735 mmHg 71%
    21:00 +22°C° 0 mm 1 mps 735 mmHg 72%
    22:00 +22°C° 0 mm 1 mps 735 mmHg 72%
    23:00 +21°C° 0 mm 1 mps 735 mmHg 72%

    25 September, Monday

    Time Temperature Precipitation Wind Pressure Humidity
    00:00 +21°C° 0 mm 1 mps 735 mmHg 72%
    01:00 +21°C° 0 mm 1 mps 735 mmHg 72%
    02:00 +20°C° 0 mm 1 mps 735 mmHg 72%
    03:00 +20°C° 0 mm 1 mps 735 mmHg 72%
    04:00 +20°C° 0 mm 1 mps 735 mmHg 73%
    05:00 +19°C° 0 mm 1 mps 735 mmHg 74%
    06:00 +19°C° 0 mm 1 mps 736 mmHg 76%
    07:00 +21°C° 0 mm 1 mps 736 mmHg 70%
    08:00 +24°C° 0 mm 1 mps 736 mmHg 64%
    09:00 +26°C° 0 mm 1 mps 737 mmHg 58%
    10:00 +28°C° 0 mm 1 mps 736 mmHg 55%
    11:00 +30°C° 0 mm 1 mps 736 mmHg 51%
    12:00 +31°C° 0 mm 1 mps 736 mmHg 47%
    13:00 +31°C° 0 mm 1 mps 735 mmHg 48%
    14:00 +31°C° 0 mm 1 mps 735 mmHg 48%
    15:00 +31°C° 0 mm 1 mps 735 mmHg 49%
    16:00 +29°C° 0 mm 1 mps 734 mmHg 55%
    17:00 +27°C° 0 mm 1 mps 734 mmHg 60%
    18:00 +25°C° 0 mm 1 mps 734 mmHg 66%
    19:00 +24°C° 0 mm 1 mps 735 mmHg 68%
    20:00 +23°C° 0 mm 1 mps 735 mmHg 70%
    21:00 +22°C° 0 mm 1 mps 735 mmHg 72%
    22:00 +20°C° 0 mm 0 mps 735 mmHg 73%
    23:00 +20°C° 0 mm 0 mps 735 mmHg 75%

    26 September, Tuesday

    Time Temperature Precipitation Wind Pressure Humidity
    00:00 +19°C° 0 mm 0 mps 735 mmHg 77%
    01:00 +19°C° 0 mm 0 mps 735 mmHg 78%
    02:00 +18°C° 0 mm 0 mps 735 mmHg 79%
    03:00 +18°C° 0 mm 0 mps 735 mmHg 80%
    04:00 +18°C° 0 mm 0 mps 735 mmHg 81%
    05:00 +18°C° 0 mm 0 mps 735 mmHg 81%
    06:00 +18°C° 0 mm 0 mps 735 mmHg 82%
    07:00 +21°C° 0 mm 0 mps 736 mmHg 75%
    08:00 +23°C° 0 mm 0 mps 736 mmHg 68%
    09:00 +26°C° 0 mm 0 mps 736 mmHg 61%
    10:00 +27°C° 0 mm 0 mps 736 mmHg 58%
    11:00 +28°C° 0 mm 0 mps 736 mmHg 54%
    12:00 +32°C° 0 mm 1 mps 736 mmHg 50%
    13:00 +32°C° 0 mm 1 mps 735 mmHg 50%
    14:00 +31°C° 0 mm 1 mps 735 mmHg 50%
    15:00 +31°C° 0 mm 1 mps 735 mmHg 49%
    16:00 +29°C° 0 mm 1 mps 735 mmHg 55%
    17:00 +27°C° 0 mm 1 mps 734 mmHg 61%
    18:00 +25°C° 0 mm 1 mps 734 mmHg 67%
    19:00 +24°C° 0 mm 1 mps 735 mmHg 69%
    20:00 +24°C° 0 mm 1 mps 735 mmHg 71%
    21:00 +23°C° 0 mm 1 mps 735 mmHg 73%
    22:00 +23°C° 0 mm 1 mps 735 mmHg 75%
    23:00 +22°C° 0 mm 1 mps 735 mmHg 78%

    27 September, Wednesday

    Time Temperature Precipitation Wind Pressure Humidity
    00:00 +20°C° 0 mm 0 mps 734 mmHg 80%
    01:00 +19°C° 0 mm 0 mps 734 mmHg 81%
    02:00 +19°C° 0 mm 0 mps 734 mmHg 83%
    03:00 +19°C° 0 mm 0 mps 734 mmHg 85%
    04:00 +19°C° 0 mm 0 mps 734 mmHg 85%
    05:00 +19°C° 0 mm 0 mps 735 mmHg 85%
    06:00 +19°C° 0 mm 0 mps 735 mmHg 85%
    07:00 +21°C° 0 mm 0 mps 735 mmHg 78%
    08:00 +23°C° 0 mm 0 mps 735 mmHg 71%
    09:00 +28°C° 0 mm 1 mps 735 mmHg 64%
    10:00 +29°C° 0 mm 1 mps 735 mmHg 60%
    11:00 +30°C° 0 mm 1 mps 735 mmHg 56%
    12:00 +31°C° 0 mm 1 mps 734 mmHg 52%
    13:00 +31°C° 0 mm 1 mps 734 mmHg 53%
    14:00 +31°C° 0 mm 1 mps 733 mmHg 53%
    15:00 +31°C° 0 mm 1 mps 733 mmHg 54%
    16:00 +29°C° 0 mm 1 mps 733 mmHg 60%
    17:00 +27°C° 0 mm 1 mps 733 mmHg 67%
    18:00 +25°C° 0 mm 1 mps 733 mmHg 73%
    19:00 +24°C° 0 mm 1 mps 733 mmHg 75%
    20:00 +23°C° 0 mm 1 mps 733 mmHg 78%
    21:00 +23°C° 0 mm 1 mps 733 mmHg 80%
    22:00 +22°C° 0 mm 1 mps 733 mmHg 81%
    23:00 +22°C° 0 mm 1 mps 733 mmHg 83%
    Show more